Location: Palmerston North
(40.3500°S, 175.6170°E)
Time: 13:14:13
(UTC+13:00)

ISS - Pass Details

Date: 23 October 2019
Orbit: 412 x 421 km, 51.6° (Epoch: 23 November)

Event Time Altitude Azimuth Distance (km) Brightness Sun altitude
Rises 22:27:08 0° 243° (WSW) 2,381 1.2 -27.1°
Reaches altitude 10° 22:30:13 10° 213° (SSW) 1,520 0.0 -27.5°
Maximum altitude 22:31:50 13° 184° (S) 1,365 -0.6 -27.7°
Enters shadow 22:32:31 12° 172° (S) 1,395 -0.7 -27.8°
